Regional Weather Roundup
Issued by NWS Cleveland, OH

Home | Current Version | Previous Version | Graphics & Text | Print | Product List | Glossary On
Versions: 1 2 3 4 5 6 7 8 9 10 11 12 13 14 15 16 17 18 19 20 21 22 23 24 25 26 27 28 29 30 31 32 33 34 35 36 37 38 39 40 41 42 43 44 45 46 47 48 49 50
000
ASUS41 KCLE 261202
RWRCLE
OHIO REGIONAL WEATHER ROUNDUP
NATIONAL WEATHER SERVICE CLEVELAND, OH
700 AM EST MON JAN 26 2015

NOTE: "FAIR" INDICATES FEW OR NO CLOUDS BELOW 12,000 FEET WITH NO
SIGNIFICANT WEATHER AND/OR OBSTRUCTIONS TO VISIBILITY.

OHZ001>008-015>018-024>027-034-035-043-044-261300-
   NORTHWEST OHIO

CITY           SKY/WX    TMP DP  RH WIND       PRES   REMARKS
DEFIANCE       PTCLDY     8   3  80 N7        29.92R WCI  -3
FINDLAY        MOCLDY    15   8  73 N12       29.86R WCI   2
TOLEDO EXPRESS CLEAR     10   2  69 N5        29.90R WCI   2
TOLEDO EXEC    PTCLDY    13   5  70 N9        29.90S WCI   1
LIMA           MOCLDY    16   8  71 N12       29.85R WCI   3
$$

OHZ009>014-019>023-028>033-038-089-261300-
   NORTHEAST OHIO

CITY           SKY/WX    TMP DP  RH WIND       PRES   REMARKS
CLE-HOPKINS    LGT SNOW  20  16  84 NE14      29.84S BLWGSNOWWCI   7
CLE-LAKEFRONT  LGT SNOW  20  16  84 NE16G22   29.83R FOG     WCI   6
CUY CO. ARPT   LGT SNOW  19  18  93 NE16      29.82  WCI   5
LORAIN-ELYRIA  LGT SNOW  19  15  84 NE14      29.83S FOG     WCI   6
ASHTABULA      FLURRIES  17  12  80 NE6       29.82R WCI   9
AKRON-CANTON   LGT SNOW  20  15  81 N12       29.75R VSB 1   WCI   8
WOOSTER        LGT SNOW  18  14  84 N13       29.77R FOG     WCI   5
MANSFIELD      LGT SNOW  17  15  92 N14       29.77R FOG     WCI   3
YOUNGSTOWN     LGT SNOW  19  15  84 N10       29.75R FOG     WCI   7
$$

OHZ042-051>053-060>062-070>072-077>081-261300-
  SOUTHWEST OHIO

CITY           SKY/WX    TMP DP  RH WIND       PRES   REMARKS
CINC-COVINGTON CLOUDY    21  16  81 NW17      29.83R WCI   7
CINC-LUNKEN    CLOUDY    21  16  81 N12       29.87R WCI   9
HAMILTON       CLOUDY    20  15  81 N7        29.87R WCI  11
DAYTON         CLOUDY    18  14  84 N15       29.83R WCI   4
WRIGHT-PAT AFB NOT AVBL
DAYTON GENERAL FAIR      17  14  88 N12       29.81R WCI   4
WILMINGTON     CLOUDY    21  16  81 N16       29.78R WCI   7
$$

OHZ036-037-039>041-045>050-054>059-063>069-073>076-082>088-261300-
  CENTRAL AND SOUTHEAST OHIO

CITY           SKY/WX    TMP DP  RH WIND       PRES   REMARKS
COLUMBUS       LGT SNOW  21  18  88 N13       29.76R FOG     WCI   9
OSU AIRPORT    LGT SNOW  20  16  84 N13       29.77R FOG     WCI   7
BOLTON FIELD   NOT AVBL
RICKENBACK AFB NOT AVBL
NEWARK         LGT SNOW  23  19  85 N8        29.75R FOG     WCI  14
MARION         LGT SNOW  18  14  84 N17       29.80S FOG     WCI   3
LANCASTER      LGT SNOW  23  20  88 N12       29.75R VSB 3/4 WCI  12
ZANESVILLE     LGT SNOW  22  19  89 N8        29.72R VSB 1   WCI  12
NEW PHILLY     LGT SNOW  22  17  81 N7        29.75R WCI  13
$$


USA.gov is the U.S. government's official web portal to all federal, state and local government web resources and services.